STARLINK-1043, 44748

Orbit data source: Space-Track

STARLINK-1043, 44748 is a payload satellite owned by SpaceX/Seattle (US) in LEO that was launched on Mon, 11 Nov 2019 UTC via an FALCON 9 launch vehicle from the Air Force Eastern Test Range (AFETR). Payloads include a variety of satellites, spacecraft, and rockets equipped with specific instruments for various scientific and technological missions. These include communications satellites like Starlink; space stations such as the ISS; scientific satellites like the Hubble; Earth observation satellites from companies like Planet Labs, Umbra, and HawkEye 360; GPS; miniature CubeSats for education and research; and military/defense satellites.

Loading next visibility...
STARLINK-1043 details
Identifier
44748, 2019-074AM
Orbit
LEO
Last TLE update7 hours ago
Origin
Flag of USSpaceX/Seattle (US)
ManufacturerSpaceX/Seattle
MissionOperational Commercial Communications
Bus & MotorSTARLINK, Unknown motor
Mass260 kg wet, ~248 kg dry
Launch date (UTC)
2019-11-11 (5 years ago)
Launch vehicle
FALCON 9
Launch site
Air Force Eastern Test Range (AFETR)
Object type
Payload
Rocket body
Debris
Shape & HBRBox + 1 Pan, 8.86 m
Radar Cross Section13.562 m², Large (>1 m²)

Expand to show TLE details & history

TLE from 7 hours ago
0 STARLINK-1043
1 44748U 19074AM  24361.13348733  .00006419  00000-0  44961-3 0  9993
2 44748  53.0573  35.3772 0001563  89.0000 271.1168 15.06384892282263
Epoch: 2024-12-26T03:12Z
Definitive object data (Epoch: 2024-12-26T03:12:13.305Z)
Latitude-0.00002°
Longitude-107.79551°
Altitude548.116 km
Speed7.589 km/s
True Right ascension02h 21m 30s
True Declination0° 00' 00"
Sunlit
Object was in full shadow at TLE epoch
Visualization TLE readout
Latitude45.88593°
Longitude20.4405°
Altitude551.158 km
Speed7.592 km/s
Apparent Right ascension16h 18m 34s
Apparent Declination25° 21' 17"
Sunlit
Object is in full shadow
Visualization observer readout
Local Sidereal Time09:26:21
Azimuth62.44° ENE
Elevation6.787°
Doppler factor1
Orbital elements
Apogee altitude548.611 km
Perigee altitude546.446 km
Semi-major axis6,925.665 km
Eccentricity0.0001563
Inclination53.0573°
RAAN35.3772°
Arg. of periapsis89°
True anomaly271.09889°
Mean anomaly271.1168°
Eccentric anomaly271.10785°
Mean motion3.76575 °/min
BSTAR0.00044961
Orbital period95.6 mins
Loading maneuver chart data...

STARLINK-1043 Visibility forecast

Observer location: undefined°, undefined

Span
Click to sort rows by Start time (UTC) header in descending order
Start Az.
Max El. time (UTC)
Max El. Az.
Max El.
End time (UTC)
End Az.
7 mins2024-12-26 11:38:13.524Z319.483° NNW2024-12-26 11:42:13.524Z43.918° NE36.124°2024-12-26 11:45:13.524Z105.608° ESE
5 mins2024-12-26 13:19:13.524Z272.645° WNW2024-12-26 13:21:13.524Z233.393° WSW22.563°2024-12-26 13:24:13.524Z179.525° S
6 mins2024-12-27 04:52:13.524Z208.324° SW2024-12-27 04:54:13.524Z138.998° SSE41.42°2024-12-27 04:58:13.524Z56.316° ENE
5 mins2024-12-27 06:32:13.524Z295.516° NW2024-12-27 06:34:13.524Z339.265° N23.32°2024-12-27 06:37:13.524Z29.889° NE
4 mins2024-12-27 09:54:13.524Z352.892° N2024-12-27 09:55:13.524Z10.523° NNE16.809°2024-12-27 09:58:13.524Z59.268° ENE
|